Wind_Speed
46 44 42 39 38 36 36 36 39 40 42 43 44 46 46 45 46 46 46 45 44 41 39 37 35 32 30 28 28 30 30 30 30 29 29 25 19 16 16 13 11 10 8 9 11 9 8 9 9 8 6 7 9 8 10 10 9 7 4 5 5 6 5 5 7 3 2 8 10 12 15 11 8 9 7 6 7 5 5 7 7 9 10 7 5 9 12 15
44 44 42 40 38 36 35 36 38 40 42 42 43 45 45 44 44 45 46 45 44 43 41 37 33 30 26 24 25 24 23 24 25 29 30 22 19 19 15 10 11 14 12 10 11 9 9 8 7 9 8 8 8 8 8 8 9 7 4 5 6 4 3 2 4 3 2 6 12 12 13 10 7 11 10 7 9 9 7 8 9 8 10 11 8 9 13 17
44 43 43 39 37 35 34 35 38 41 41 41 43 44 44 43 44 44 45 44 43 42 41 37 33 30 28 26 24 21 20 20 22 29 29 22 22 20 11 8 13 16 13 11 10 9 10 9 7 9 10 9 8 8 7 7 9 7 5 6 4 4 6 3 4 5 4 5 12 13 11 8 6 10 11 8 8 10 10 9 11 11 12 13 12 11 13 18
44 43 42 39 37 35 35 35 38 42 41 41 42 43 43 42 42 43 43 42 41 40 39 36 33 32 32 29 25 22 20 15 20 31 28 21 23 21 14 13 16 15 13 12 11 10 11 9 8 9 10 9 8 7 7 8 7 5 5 4 2 6 5 4 5 6 5 4 9 12 11 9 7 9 10 8 7 8 11 11 11 13 14 15 15 12 13 18
43 42 42 39 37 36 35 35 39 43 42 41 42 43 42 41 41 42 42 41 40 39 37 35 33 32 32 30 26 24 18 7 15 28 25 21 23 23 20 18 19 17 14 13 12 12 11 10 8 9 10 9 8 7 8 10 7 4 4 3 4 3 3 6 5 5 6 4 8 11 10 10 9 8 11 11 8 3 6 9 10 10 11 15 18 14 14 18
43 43 43 40 38 37 36 37 40 44 43 40 41 42 41 39 39 39 40 40 39 38 36 34 32 30 29 28 26 24 20 5 5 14 20 21 20 25 28 22 20 19 16 15 12 13 12 10 9 9 10 8 8 9 7 10 8 5 4 1 4 3 3 6 4 6 6 3 7 9 8 9 9 9 10 13 10 2 4 7 10 9 8 12 17 16 15 17
44 43 42 39 38 38 38 39 41 44 43 41 40 41 40 38 37 37 38 38 37 36 35 33 31 29 29 28 25 25 24 12 3 4 13 20 20 30 32 23 22 22 18 16 14 15 13 11 11 11 10 7 7 9 6 8 10 7 3 6 2 5 4 5 4 7 6 3 5 6 6 9 10 8 6 14 13 4 3 6 8 9 10 12 14 15 16 16
43 41 39 38 38 39 40 40 41 43 43 39 38 38 37 36 35 36 37 36 35 34 33 32 31 31 31 30 28 25 26 20 11 5 7 17 26 34 31 22 23 23 20 18 17 16 14 14 14 12 9 6 6 7 6 7 10 10 3 6 4 4 4 4 4 6 5 4 5 5 6 7 8 5 4 13 14 9 11 7 6 6 10 14 14 14 16 17
42 39 38 38 39 39 40 40 42 44 42 37 36 36 34 34 35 35 35 34 34 33 33 33 33 34 31 32 28 19 24 28 21 10 4 13 30 35 28 23 25 24 20 18 18 17 14 15 15 12 7 5 5 5 7 8 7 7 4 7 6 5 4 4 3 5 4 4 5 6 7 4 4 5 7 13 12 11 15 13 11 7 7 12 15 15 15 17
41 38 37 39 40 39 40 41 42 44 42 36 35 36 34 34 35 34 34 33 33 33 34 35 35 34 32 31 23 12 19 30 28 16 4 6 24 32 27 24 26 24 21 19 19 18 16 13 14 15 7 3 4 4 7 7 2 4 8 8 6 5 4 3 3 4 4 4 6 6 5 3 3 5 6 9 13 15 15 14 16 14 10 10 13 15 16 17
41 39 39 40 40 40 41 40 39 39 39 37 35 36 35 34 34 34 34 34 35 35 35 35 35 34 33 30 22 12 14 24 30 25 9 3 14 26 27 26 25 23 21 20 20 20 18 10 10 15 7 3 6 3 5 4 1 7 11 9 6 5 4 3 3 5 3 3 6 4 3 3 4 5 5 7 12 15 15 14 16 18 15 11 12 15 16 17
41 40 40 40 40 40 41 40 37 35 36 37 37 36 35 34 34 34 35 36 36 36 36 36 35 35 31 26 21 13 10 17 26 28 19 7 9 20 24 24 24 23 20 19 19 20 18 11 11 13 6 4 7 4 4 4 3 8 10 6 6 4 5 4 3 5 3 3 7 3 3 6 7 11 10 9 10 10 13 13 14 18 17 14 13 15 17 18
42 41 40 40 40 40 41 40 37 35 36 37 37 35 34 34 35 35 36 37 36 36 36 35 34 34 27 20 20 15 9 13 19 25 25 13 7 15 22 23 22 21 19 19 17 17 18 14 11 12 6 3 5 4 4 6 6 8 7 4 6 5 6 6 4 4 3 4 8 4 4 7 12 15 12 12 12 10 12 11 12 15 16 15 15 18 20 19
43 41 40 40 40 40 40 39 37 36 36 35 35 35 34 34 35 35 36 37 36 35 34 33 33 32 24 14 17 18 11 11 16 20 23 17 9 14 21 22 21 19 18 18 16 15 17 13 10 11 8 4 6 7 6 6 4 6 5 4 5 6 5 6 5 6 5 6 8 5 5 6 6 12 11 12 14 12 11 11 11 12 13 16 18 21 22 22
43 41 40 39 40 41 39 38 37 37 35 33 34 34 33 33 34 35 37 37 35 34 33 32 32 28 19 11 12 19 16 12 14 17 19 17 11 14 21 21 19 18 16 15 15 14 14 13 11 9 6 5 9 9 5 5 4 5 5 5 7 6 4 6 5 6 3 5 8 6 5 7 3 10 7 10 14 13 11 11 11 11 11 13 18 22 22 23
43 42 41 40 42 41 39 38 37 37 34 31 31 32 32 32 34 36 37 37 34 33 31 32 33 24 12 10 10 18 21 16 15 16 17 16 13 16 21 20 17 16 14 13 13 13 14 12 9 6 7 7 8 7 5 5 5 5 6 5 7 8 5 5 4 4 2 3 9 9 5 6 3 8 5 8 11 12 12 12 12 11 12 12 14 18 22 23
43 43 40 41 42 40 40 39 37 37 33 31 31 31 32 32 35 36 36 35 32 32 30 28 31 19 7 9 11 18 25 22 17 15 16 17 15 17 20 19 17 15 13 12 11 13 14 11 7 6 6 7 8 7 6 7 6 6 6 4 4 7 6 4 3 4 5 4 8 10 8 10 4 6 7 7 9 11 12 12 12 11 12 13 13 16 20 22
45 43 40 41 42 40 40 39 39 37 34 35 33 32 33 33 35 35 35 34 30 29 24 21 26 13 7 12 12 16 26 26 20 15 15 17 16 18 21 20 17 15 13 11 10 12 12 8 7 5 5 7 8 8 8 7 8 8 8 5 3 5 5 4 3 5 7 7 7 10 11 14 12 6 7 9 9 9 10 10 10 10 11 12 13 16 19 21
45 42 41 41 41 39 40 41 40 37 38 36 32 33 33 32 31 29 33 35 29 21 11 19 28 8 3 17 17 16 25 27 21 15 15 17 18 18 19 18 18 18 14 10 9 11 10 6 6 6 6 9 9 11 9 5 7 10 10 8 5 5 5 3 4 4 5 6 9 12 11 12 13 12 9 9 11 10 10 10 10 10 11 11 13 15 17 21
45 43 41 40 40 38 40 43 39 39 41 37 39 39 31 29 21 15 29 33 26 17 7 22 32 6 2 22 25 19 21 24 21 18 16 17 20 19 16 17 17 15 11 8 8 9 9 6 6 9 9 11 13 11 5 0 3 7 8 8 6 6 5 4 6 3 2 4 8 11 12 12 13 12 12 11 11 11 12 13 13 13 13 13 14 16 18 22
45 43 41 40 40 38 42 42 38 42 40 39 48 38 28 32 18 16 33 22 15 14 7 24 30 7 6 22 28 25 21 19 18 21 19 18 22 18 14 15 13 10 6 7 9 6 7 7 9 10 8 10 12 6 1 1 1 4 6 6 6 5 3 5 5 4 3 3 6 8 10 13 13 12 13 14 13 14 16 16 17 18 17 16 16 18 20 21
45 42 40 40 39 39 44 41 39 42 35 39 44 26 25 33 19 30 40 14 8 12 8 26 25 5 9 20 25 26 21 15 15 22 23 22 23 16 12 13 10 7 5 7 8 6 6 9 9 7 3 4 5 4 3 2 2 3 4 5 5 4 4 4 4 5 4 3 3 3 6 11 12 13 14 15 16 17 19 19 19 19 19 19 18 19 20 22
43 42 40 40 39 40 43 40 39 38 34 39 36 22 26 25 18 37 35 14 11 11 10 26 20 6 12 19 25 24 18 16 15 21 26 25 21 14 14 14 9 8 7 8 9 7 8 6 3 5 6 6 5 5 6 4 4 4 4 5 3 3 3 2 4 5 3 3 3 4 6 9 11 12 13 17 19 18 17 17 18 18 19 19 18 18 18 20
42 41 40 40 39 41 42 39 38 36 34 36 29 24 26 21 27 39 25 11 10 5 8 19 15 12 16 19 26 22 14 16 15 21 29 26 19 14 15 14 10 9 9 12 12 8 5 1 1 3 6 8 7 7 9 6 6 5 4 5 2 4 3 2 4 5 2 3 2 5 7 8 10 12 12 13 14 14 13 14 16 19 23 23 22 23 23 23
43 41 40 41 40 42 43 38 38 36 33 32 26 26 27 28 37 36 18 9 7 4 7 12 10 12 17 21 25 19 11 11 13 22 31 26 19 15 12 11 9 9 12 13 12 8 2 2 1 5 6 7 8 7 9 8 6 5 5 4 1 2 4 5 6 5 2 4 2 2 5 5 5 10 11 7 6 9 10 11 16 19 21 24 27 30 30 30
44 43 42 43 42 44 42 37 38 35 30 31 30 30 33 38 39 29 15 6 5 6 7 11 11 11 16 18 20 17 9 9 14 26 32 24 19 16 11 7 3 6 11 10 5 3 2 2 2 5 7 8 7 7 8 7 6 4 3 2 1 1 4 6 6 4 2 2 2 2 5 4 2 5 6 5 4 7 8 9 13 15 14 16 22 25 27 29
45 44 44 43 45 47 41 36 37 34 30 31 33 35 38 40 35 25 13 2 6 10 9 10 10 12 14 14 20 14 5 11 15 21 28 21 18 17 11 9 4 2 6 5 3 1 4 5 2 5 7 7 7 7 7 9 7 2 1 1 4 3 4 6 5 4 2 1 2 3 3 4 6 4 2 3 4 8 8 9 12 14 12 12 14 16 18 21
46 45 45 44 47 45 34 31 37 37 34 33 36 39 39 39 34 22 8 2 6 9 8 8 7 12 13 15 21 9 5 18 14 13 24 20 17 14 9 11 10 7 5 3 6 2 3 6 6 8 8 6 5 1 4 9 6 0 1 1 3 2 3 5 5 3 1 1 4 5 4 4 7 4 3 3 6 9 9 10 10 9 9 8 7 9 11 14
48 46 46 44 45 38 25 27 38 39 34 35 39 39 38 38 30 13 3 3 6 5 7 11 10 12 12 15 17 6 8 13 5 12 23 17 15 10 5 11 13 11 6 1 2 1 1 2 3 5 6 4 3 4 2 2 2 3 4 4 6 3 3 2 3 2 1 4 6 5 6 5 6 4 4 4 5 7 8 8 5 4 5 5 4 5 7 10
48 47 47 46 46 38 25 28 39 38 35 37 39 39 38 32 19 7 5 5 6 5 7 11 13 14 15 14 11 8 9 4 5 18 18 11 12 8 7 12 12 10 5 3 5 3 1 2 1 1 1 2 5 5 5 3 5 8 6 6 7 4 3 1 1 1 3 5 3 2 3 4 5 4 5 3 2 3 4 4 3 5 4 3 3 2 3 6
48 47 48 48 47 41 32 35 42 41 39 40 40 39 33 18 7 6 6 5 6 5 5 9 13 16 19 16 10 10 9 4 10 19 13 8 9 7 10 10 7 7 5 3 5 3 3 4 2 2 2 4 5 6 5 3 5 5 4 6 5 3 3 2 3 2 5 5 1 2 1 3 5 4 2 1 2 1 1 2 3 4 4 4 3 1 3 6
47 46 47 46 44 40 36 40 45 42 40 43 44 38 22 7 5 7 6 7 8 6 7 12 14 15 19 17 10 11 9 7 12 15 12 10 8 9 11 8 8 7 5 7 4 3 4 3 2 3 2 4 4 6 5 2 3 3 5 7 5 4 4 4 4 4 5 3 2 1 1 3 7 8 6 6 6 2 2 3 2 2 3 3 1 1 5 7
45 44 44 42 40 38 35 39 44 41 40 43 39 26 11 5 9 9 8 8 4 5 10 13 14 15 19 15 10 12 9 7 13 14 13 11 10 10 7 6 11 8 5 9 7 5 4 2 3 4 3 6 6 5 5 4 5 6 7 7 5 5 4 5 6 4 4 1 1 1 0 3 6 7 9 11 7 1 1 3 4 5 5 5 6 5 4 5
42 41 41 40 38 37 35 40 44 41 43 43 28 12 7 8 9 9 10 6 2 5 10 13 14 16 18 13 11 13 7 5 12 13 13 12 10 11 7 8 14 7 4 9 7 7 7 3 5 5 4 7 7 2 1 5 7 4 2 2 4 4 3 5 4 3 2 2 1 2 2 4 4 1 2 6 4 2 3 6 7 10 11 10 9 6 2 3
39 38 37 37 38 36 37 43 45 42 45 37 15 6 9 9 8 10 10 6 6 8 12 16 16 16 14 8 11 13 3 3 12 10 10 12 10 12 11 11 14 9 7 9 5 6 8 3 1 1 1 5 5 1 2 4 6 2 1 0 3 2 0 1 0 0 1 1 2 4 3 5 4 4 6 7 5 4 5 4 5 7 7 6 6 5 3 2
40 36 33 37 38 35 39 46 45 45 45 28 8 7 11 8 6 9 8 7 9 11 15 16 13 12 11 5 9 12 1 2 13 9 8 12 11 12 12 11 14 12 10 9 4 4 6 2 2 2 2 2 2 2 2 1 3 2 1 2 2 1 3 3 1 2 0 4 3 4 4 5 4 6 8 7 5 4 5 4 4 5 5 5 5 6 5 3
41 35 32 38 38 35 42 46 44 47 39 18 7 11 11 6 2 4 8 11 13 15 15 12 9 10 12 7 9 13 6 6 11 8 8 10 9 13 14 11 14 15 9 4 2 2 4 3 2 1 2 3 3 2 3 3 2 2 3 4 4 1 1 1 2 1 2 5 3 4 6 6 3 3 2 2 3 2 5 3 1 3 5 5 7 9 7 4
42 34 31 35 36 37 44 45 45 45 28 9 10 14 9 4 2 5 13 16 15 16 12 9 8 8 11 10 10 14 12 9 10 8 8 8 7 12 16 11 13 17 9 2 1 1 2 3 2 3 1 2 1 1 3 2 2 1 2 2 3 2 3 3 3 3 4 5 4 4 6 5 5 5 2 2 2 2 4 3 0 3 4 6 9 10 7 5
42 30 23 31 36 38 43 45 43 36 17 7 12 12 7 5 2 6 18 18 13 13 10 8 8 6 8 11 11 13 13 10 11 9 7 7 6 9 15 10 9 17 14 2 2 3 2 1 2 1 1 2 1 3 5 5 2 1 1 1 0 1 2 3 3 3 4 5 5 4 4 4 5 6 7 8 5 2 3 3 2 3 3 6 9 9 8 8
42 22 15 33 39 37 42 41 32 21 9 8 10 6 4 5 2 4 14 15 9 7 8 10 10 7 8 11 12 12 11 10 12 9 7 9 7 5 12 11 8 13 12 5 1 4 2 1 3 3 1 2 4 4 4 6 6 4 4 5 4 1 0 1 3 2 2 4 5 5 5 4 1 3 6 5 1 1 2 3 2 2 2 6 9 9 9 9
38 13 12 37 40 37 42 31 17 11 8 7 5 2 3 6 6 7 7 7 4 1 3 8 11 9 9 11 12 11 9 9 11 9 6 9 9 5 7 11 11 12 10 5 3 4 2 1 4 5 3 4 2 1 1 0 2 4 5 7 8 5 3 3 4 2 1 3 4 4 5 3 1 1 3 3 3 2 2 2 3 2 2 5 7 7 8 9
27 6 17 42 41 42 40 18 8 11 7 6 4 5 4 6 8 9 5 5 4 2 1 5 8 8 8 10 11 11 10 8 10 10 7 10 12 7 6 10 14 16 11 5 3 2 2 3 5 5 3 2 1 2 1 1 1 1 2 4 5 6 6 6 5 4 3 2 1 2 4 3 2 1 1 3 4 4 2 2 3 2 3 6 6 6 6 6
17 8 22 42 44 46 33 7 5 9 4 5 8 7 5 4 6 9 7 6 3 2 2 4 5 6 7 8 10 13 12 9 10 12 9 10 8 4 9 13 16 17 11 6 5 4 2 3 5 4 3 2 1 1 2 1 1 2 4 4 6 7 7 4 2 2 4 4 2 3 5 4 1 2 0 2 3 3 3 5 5 4 6 8 8 7 6 5
20 17 21 34 42 42 22 4 9 11 5 9 9 5 4 3 5 9 10 8 5 4 6 5 4 4 4 6 9 13 13 8 8 11 8 7 5 4 10 17 16 14 11 7 9 9 6 4 5 5 4 3 2 2 2 3 4 5 4 5 7 6 3 2 0 1 3 6 7 5 7 6 1 3 1 1 2 2 3 6 8 7 7 9 9 8 7 5
19 14 15 30 42 34 11 2 6 8 8 11 9 9 7 3 3 5 8 8 4 4 7 4 4 5 5 6 7 10 14 8 5 9 6 4 4 3 7 15 16 14 8 6 14 15 8 5 7 7 7 7 7 7 7 5 5 4 2 4 9 9 7 5 3 3 4 6 7 6 8 6 1 3 4 4 4 4 4 7 10 10 10 10 10 9 8 6
10 5 8 19 29 24 9 5 3 3 10 12 8 10 12 7 3 3 5 7 3 2 4 3 5 7 6 9 8 9 14 6 1 6 8 6 4 2 3 10 12 10 5 8 17 16 4 4 9 11 10 10 11 9 5 7 7 8 10 10 12 14 13 8 3 5 7 5 5 8 11 10 5 5 7 6 6 7 7 8 11 12 12 12 12 11 10 9
6 3 3 7 11 12 8 7 6 4 10 14 8 9 15 12 8 5 5 4 4 6 3 3 6 9 9 13 10 9 13 6 3 5 8 6 4 4 2 4 4 5 6 9 15 11 3 6 11 13 14 13 11 6 8 11 11 14 16 14 12 13 14 11 7 10 10 5 6 11 13 14 11 8 9 8 8 8 8 10 11 12 14 14 13 12 11 11
5 3 5 8 5 5 6 7 9 8 11 14 8 8 16 14 11 10 6 2 6 9 4 2 9 13 15 16 10 7 11 6 2 5 6 5 5 5 4 1 1 2 3 6 9 5 3 7 10 11 13 14 8 1 8 12 11 12 15 15 14 14 15 14 13 14 11 7 10 15 16 16 15 12 11 11 10 8 9 11 11 12 15 16 13 13 13 13
6 6 8 8 4 5 7 4 7 10 9 10 7 8 15 16 14 12 7 5 6 9 7 7 12 15 16 16 11 9 11 9 6 6 5 6 6 5 4 2 1 3 3 4 4 2 2 6 9 9 10 13 7 3 5 10 9 9 13 14 14 16 17 17 15 16 15 13 16 20 20 17 14 11 12 13 12 11 10 11 11 12 15 16 15 14 13 14
5 4 7 7 6 5 8 6 8 8 5 6 7 7 12 16 15 12 8 9 10 9 10 9 12 16 15 14 13 10 12 14 11 9 9 7 5 5 4 4 4 5 5 5 3 2 4 5 6 6 6 11 8 5 5 8 8 8 8 8 10 12 14 15 14 15 17 17 20 21 18 15 12 10 13 15 14 12 10 10 11 11 13 15 15 15 14 15
6 6 8 8 5 4 6 6 7 8 6 8 8 8 11 16 17 13 7 7 8 9 10 10 10 12 10 13 15 12 13 13 7 12 19 13 9 11 7 5 9 8 6 6 5 4 5 3 2 5 6 9 8 8 7 4 1 4 4 7 12 12 12 14 14 16 16 17 19 18 14 13 11 9 12 14 13 11 9 10 12 11 13 15 15 14 12 10
7 7 8 7 4 3 4 5 7 8 7 7 8 10 11 12 16 14 8 4 5 6 9 11 12 10 7 13 14 9 11 9 5 13 23 13 9 13 8 7 15 13 8 8 5 4 6 5 3 6 7 6 4 6 8 7 2 4 7 12 16 16 16 15 14 16 17 15 15 12 12 12 7 6 10 11 10 10 10 11 13 13 13 13 12 10 8 9
Wind_Direction
212 213 214 214 215 216 218 220 218 214 212 210 210 212 214 215 215 216 217 217 217 218 219 220 221 222 223 223 217 213 212 218 226 231 235 227 219 226 239 256 270 266 278 273 248 252 251 241 247 240 234 219 219 228 224 228 225 217 221 222 214 206 189 173 179 160 117 134 143 161 175 189 168 172 193 189 204 207 186 194 205 208 209 224 193 178 188 185
210 212 214 214 215 216 216 219 217 213 211 208 207 210 211 213 214 216 217 217 218 219 220 220 219 217 214 210 204 201 207 219 229 238 234 219 217 225 233 250 258 256 259 261 249 251 253 245 246 234 222 213 219 224 221 223 213 214 230 220 222 195 125 127 157 96 26 145 150 164 181 198 175 166 181 194 197 195 202 201 206 205 203 217 206 187 191 187
207 209 213 213 214 215 215 217 217 213 210 207 204 206 208 211 213 214 216 216 216 218 219 218 215 209 205 202 200 204 214 223 234 241 233 218 218 216 213 222 234 246 244 241 247 248 246 243 246 230 220 217 211 211 219 213 208 220 235 226 207 134 95 85 123 91 40 123 152 165 177 192 171 159 175 200 196 192 211 201 196 202 195 205 204 193 193 191
205 208 212 211 212 213 213 215 215 212 208 206 203 203 205 208 210 212 214 214 213 215 215 215 211 205 205 205 206 208 207 217 236 241 234 223 223 210 197 214 225 229 223 230 243 243 237 234 243 233 226 223 195 196 214 201 204 207 213 252 136 131 121 117 116 105 87 113 158 159 166 183 166 163 179 199 202 197 217 209 197 206 196 196 200 194 192 193
202 206 211 209 208 211 211 213 212 209 206 204 202 202 203 205 208 209 211 211 210 212 212 210 207 203 205 206 207 199 185 201 245 244 240 228 226 209 202 218 220 216 216 227 237 236 230 224 236 233 231 225 185 194 211 199 208 209 203 344 39 130 132 121 121 137 126 115 153 155 169 175 156 176 193 202 217 185 198 203 194 203 194 194 204 199 189 193
202 206 209 207 206 209 210 211 210 207 205 203 202 202 203 204 206 207 208 209 208 208 208 205 201 198 198 198 198 186 176 200 257 237 234 228 223 203 206 220 219 220 222 221 227 231 224 213 217 216 225 228 197 196 196 193 211 231 197 82 30 37 91 116 133 170 156 143 167 166 170 161 163 191 199 212 225 106 116 183 191 199 181 187 207 210 198 196
204 206 207 205 205 208 210 210 209 207 205 205 204 203 204 204 204 205 205 206 205 203 202 199 193 190 189 187 186 181 190 222 266 203 214 215 207 198 207 220 220 223 223 217 218 221 215 204 205 208 218 226 209 199 182 184 210 248 209 144 92 40 90 126 147 170 159 174 175 160 167 172 191 194 186 218 228 223 198 185 191 208 196 197 215 219 215 210
202 203 205 203 204 208 209 208 207 206 203 202 204 203 202 202 203 202 201 202 199 197 194 190 185 183 183 181 177 182 203 219 227 232 206 196 193 198 209 217 218 219 218 217 212 213 210 203 202 203 214 224 212 195 177 181 208 240 222 129 121 67 95 128 150 161 156 185 173 166 186 182 200 195 193 225 225 226 232 214 192 205 200 208 221 223 221 220
200 203 203 202 203 206 207 205 203 204 201 198 200 200 198 197 199 197 197 196 191 189 186 181 178 178 179 179 176 187 211 212 211 225 238 193 192 203 215 214 212 213 215 215 210 212 210 206 202 199 218 235 218 189 182 196 209 220 169 119 127 105 99 123 132 147 159 185 177 185 189 166 197 214 236 232 218 214 227 230 223 215 198 203 212 220 222 222
200 201 199 200 202 203 204 202 200 202 200 197 198 199 196 196 196 193 190 187 184 181 179 176 174 174 175 176 178 198 216 211 210 211 240 205 197 207 215 209 207 208 213 211 208 209 208 211 204 201 226 258 215 192 187 207 231 147 132 114 119 108 106 134 124 144 159 165 186 200 178 151 182 209 237 214 206 218 224 230 230 225 216 207 208 215 219 223
197 196 196 198 200 202 202 201 200 200 197 194 195 196 196 194 190 186 183 179 178 176 175 173 172 174 176 178 187 204 211 211 212 211 218 228 201 204 203 203 205 207 210 210 209 206 206 218 207 200 217 223 192 178 186 204 56 137 133 114 114 115 121 141 130 152 176 162 189 222 174 155 155 207 233 186 196 220 220 220 226 225 220 217 218 219 221 222
193 193 194 196 198 201 201 200 197 193 190 191 192 192 192 189 183 180 177 174 174 174 173 172 173 175 176 186 203 210 209 209 210 211 216 229 207 199 196 199 204 205 206 209 213 209 205 212 208 201 202 190 172 152 181 170 137 156 157 142 141 155 162 166 149 163 210 181 176 218 225 200 196 215 221 194 196 206 208 213 220 225 222 216 217 221 227 224
191 191 194 195 197 199 199 197 193 187 184 187 188 187 186 181 177 175 174 172 172 172 173 172 174 175 175 195 211 210 214 208 205 209 214 225 220 198 195 197 200 202 201 206 214 212 208 208 209 208 213 213 160 138 149 137 143 167 190 200 161 189 192 168 158 175 213 172 169 203 252 228 209 206 197 190 199 192 197 207 211 222 222 216 215 222 230 229
190 190 192 194 196 196 194 192 188 183 180 183 184 181 179 175 174 173 172 171 171 171 172 172 173 174 179 200 210 206 207 201 200 206 212 219 219 196 192 192 194 196 198 204 209 208 208 206 207 211 218 223 140 133 125 122 165 171 184 218 189 208 182 149 158 180 193 163 171 208 255 257 192 170 172 188 198 189 194 204 206 214 215 218 223 227 232 232
189 189 190 192 194 192 190 188 184 181 179 181 181 176 173 172 172 171 170 171 171 170 169 170 171 173 186 209 212 208 207 200 196 198 205 210 210 195 187 188 189 191 197 203 203 202 202 196 198 198 181 162 147 150 148 143 193 182 179 205 206 217 157 136 160 184 201 161 182 211 240 255 162 130 158 194 197 195 203 208 207 209 210 217 226 230 232 232
187 187 186 189 190 189 188 184 180 179 178 176 173 170 169 170 169 168 170 170 168 168 166 170 171 168 190 207 198 203 203 199 191 187 192 193 196 193 186 185 186 189 194 199 197 193 194 190 190 174 143 155 169 176 172 165 190 196 207 208 194 207 177 145 159 186 220 156 193 221 252 259 161 120 163 199 196 199 209 214 211 215 217 218 225 231 233 233
186 184 184 186 187 188 185 179 178 179 175 170 166 164 165 164 165 166 167 166 166 166 163 168 172 172 219 211 187 195 197 195 186 177 177 180 186 187 184 182 182 186 184 185 184 178 181 178 173 169 159 184 197 191 186 190 196 189 213 224 185 206 202 169 156 167 194 202 211 219 240 259 234 130 157 184 190 197 208 218 220 222 225 227 228 231 235 235
184 182 182 184 186 187 182 177 179 177 170 167 163 160 159 160 162 164 163 162 159 160 163 170 172 180 234 202 187 193 195 192 183 172 168 171 177 178 181 180 175 174 164 161 170 169 170 168 177 187 188 204 204 196 199 202 198 185 196 212 181 208 226 206 158 151 183 212 225 216 225 248 252 223 183 174 179 198 210 215 220 225 226 227 228 232 236 237
181 180 180 183 186 184 179 178 180 174 166 165 158 151 149 148 152 157 161 159 154 157 173 181 178 189 231 183 183 191 194 191 182 175 168 166 168 170 177 176 168 164 158 157 170 174 170 167 192 205 195 200 203 207 213 210 205 196 194 207 196 192 218 188 104 116 189 209 221 227 232 244 250 248 236 202 185 203 222 222 224 227 228 228 229 232 235 240
179 178 179 182 183 180 178 179 178 170 165 162 153 145 143 144 141 150 162 163 167 172 180 178 182 214 80 168 180 182 182 184 184 179 172 168 162 159 164 164 162 169 173 170 166 173 181 180 197 207 202 200 204 211 217 263 225 211 198 207 208 198 199 135 100 102 198 225 225 229 241 251 254 253 252 238 213 212 227 231 234 233 233 233 232 234 236 242
177 177 179 182 181 179 178 177 176 170 166 160 153 149 155 156 152 166 164 162 182 187 176 171 179 206 147 166 176 172 162 168 182 182 176 168 159 154 159 161 165 178 177 156 144 148 187 206 206 206 207 198 196 195 161 85 200 225 211 204 213 214 180 103 99 123 144 240 237 225 245 255 257 258 255 250 240 234 234 234 236 237 237 237 234 236 239 244
177 176 178 180 179 179 177 175 175 172 166 159 155 152 161 162 164 167 157 133 161 175 160 168 176 183 160 169 170 164 157 153 171 182 176 164 163 164 165 172 181 171 139 139 142 144 196 218 204 179 128 138 152 149 180 211 196 218 220 212 221 200 144 111 117 128 144 231 242 225 260 261 259 259 254 247 244 244 242 239 239 239 239 239 237 237 238 242
175 175 176 177 178 177 175 174 175 170 165 164 160 151 160 165 163 158 147 112 146 160 154 170 180 167 155 167 164 158 161 159 161 177 174 165 171 174 166 179 185 155 154 174 172 174 194 209 188 128 121 135 136 165 188 203 208 216 217 214 211 158 168 187 150 143 160 235 294 312 287 273 264 258 252 243 239 243 243 239 239 236 236 236 234 234 232 235
174 174 174 175 175 175 173 173 173 170 170 169 158 147 155 161 155 150 138 110 139 152 164 170 177 174 165 168 167 165 169 166 163 176 175 167 166 165 168 182 178 158 176 190 190 194 177 102 33 127 157 171 166 177 192 202 208 216 230 231 213 158 173 51 120 151 176 206 265 298 283 272 252 242 245 235 227 237 236 234 238 237 238 239 236 237 236 237
173 173 173 173 174 173 170 171 173 173 174 170 156 147 151 152 152 150 135 119 137 141 174 174 165 173 175 171 172 172 166 158 161 175 175 169 164 158 162 177 179 181 186 186 196 209 168 66 150 149 156 177 173 182 198 207 210 202 217 237 267 173 148 102 129 160 217 216 195 258 266 274 232 222 234 216 199 229 225 226 240 241 240 241 242 244 245 246
172 172 173 173 174 171 168 173 175 173 175 171 157 148 151 151 151 151 138 130 173 148 160 181 176 180 183 178 172 166 166 169 169 174 174 173 172 162 152 158 173 189 174 169 195 225 121 117 169 156 155 164 177 199 198 202 223 209 200 204 141 179 146 134 158 189 247 227 138 214 250 274 249 216 219 191 202 236 222 220 239 240 231 230 241 247 248 249
172 172 174 175 174 170 169 173 174 172 175 170 156 151 154 153 154 157 146 141 193 159 154 177 183 180 175 175 172 167 162 158 160 175 175 173 174 170 166 163 156 151 142 138 181 150 110 140 158 158 160 164 185 204 182 192 223 216 39 173 158 178 177 161 179 220 268 45 147 208 236 276 272 251 161 157 234 253 239 232 237 235 222 216 232 242 244 246
172 172 174 176 173 169 168 170 172 172 170 161 153 154 155 155 160 165 163 189 167 149 156 170 175 172 163 167 176 180 134 148 151 178 179 172 168 172 186 182 170 149 133 166 191 160 99 157 168 158 167 180 191 221 157 187 217 187 33 107 132 150 175 178 204 223 302 330 234 198 176 257 267 236 154 169 245 253 246 243 236 219 200 195 215 230 238 244
171 172 174 173 168 166 170 174 172 167 160 153 153 155 154 156 162 167 209 200 151 130 154 159 161 169 167 168 177 180 147 156 155 167 174 175 167 170 184 173 161 136 119 106 161 87 40 166 172 164 182 181 131 27 17 203 187 146 155 108 97 101 108 155 220 211 198 255 248 184 174 244 273 243 191 180 227 240 242 242 219 156 152 169 191 215 239 250
171 172 171 167 165 168 174 174 167 157 150 152 154 154 154 156 160 173 213 190 150 135 142 154 164 167 167 169 178 183 167 151 107 146 163 173 166 160 123 134 142 133 118 62 75 70 60 94 65 94 174 141 104 68 21 17 119 141 154 118 104 114 109 128 217 207 235 243 245 141 162 252 281 259 211 183 208 237 242 231 136 112 127 146 153 181 264 274
171 171 169 168 169 171 171 169 164 155 153 156 154 154 155 155 171 192 182 148 139 143 142 158 164 163 171 174 173 179 171 127 136 149 156 163 158 149 133 133 139 136 143 128 95 84 111 127 141 85 113 140 115 88 42 42 140 149 158 140 123 124 142 189 173 182 238 236 181 49 359 250 245 245 191 90 15 17 223 193 124 116 123 121 124 94 332 310
171 171 170 171 173 174 172 167 161 155 157 158 154 157 157 148 203 206 165 144 155 172 178 171 165 167 177 178 165 166 161 141 160 164 161 166 169 167 169 172 162 151 175 176 145 128 130 123 132 102 148 198 157 113 84 77 183 203 172 159 167 165 169 208 193 195 231 223 99 78 337 247 244 253 253 268 280 253 200 200 153 106 114 109 125 332 337 323
170 169 170 173 174 173 171 165 160 157 159 158 156 159 164 166 197 200 172 163 160 162 166 163 163 167 173 177 164 159 156 152 172 175 168 172 177 179 195 193 175 179 188 168 153 156 152 112 167 153 174 218 206 156 144 170 193 197 180 177 193 178 177 207 200 206 225 179 73 177 238 259 261 265 255 258 267 1 114 221 246 257 251 267 274 276 314 324
167 168 169 172 172 170 167 164 161 160 160 159 157 162 184 191 199 194 179 173 120 136 151 149 151 161 173 180 165 157 154 157 172 174 172 176 179 184 201 197 189 193 155 159 164 175 179 182 183 168 152 184 196 216 173 156 169 193 189 193 212 204 210 209 201 213 197 113 114 187 206 236 246 354 270 260 265 275 263 245 252 258 257 269 269 255 280 318
164 167 168 169 170 168 166 166 165 163 162 161 158 174 192 199 198 191 181 158 141 142 140 142 147 160 172 172 161 164 166 171 176 177 178 184 190 188 188 191 191 182 152 162 165 179 193 196 118 77 94 162 167 297 336 129 151 192 8 237 233 249 66 135 130 91 109 55 175 187 235 247 262 307 281 254 225 217 236 229 238 250 250 264 255 211 193 266
161 165 167 167 169 168 166 168 168 167 165 162 161 190 197 205 195 189 170 136 148 145 136 145 155 164 167 155 166 177 206 163 175 181 188 194 204 197 191 189 187 185 176 168 150 171 190 175 43 51 90 102 79 3 360 81 152 162 163 186 206 17 71 114 151 92 56 279 219 174 239 261 274 283 264 243 218 182 166 177 208 218 225 252 238 194 183 204
161 164 168 168 169 168 167 169 170 169 169 170 188 195 201 208 198 178 140 122 136 143 140 152 168 174 171 165 177 178 164 155 173 187 190 192 206 202 198 193 184 188 190 161 153 200 169 127 35 13 111 64 7 57 69 23 38 132 179 172 144 42 32 158 237 173 196 253 242 179 230 258 261 258 229 197 236 196 148 151 222 212 221 230 203 188 187 191
163 163 166 169 170 168 168 170 171 171 170 182 208 205 206 185 123 131 131 124 137 152 156 160 166 187 183 170 175 175 167 165 177 190 184 184 204 197 195 194 181 186 189 105 138 199 132 123 63 8 80 84 13 154 122 52 18 26 236 170 132 206 210 183 214 232 218 236 253 213 217 242 238 233 224 189 229 205 144 131 163 186 198 200 185 182 186 185
162 158 163 172 170 167 170 171 171 172 173 198 207 208 192 142 97 140 140 137 148 164 171 164 156 189 192 175 168 167 174 177 172 181 190 186 188 185 190 189 170 184 188 149 164 165 100 149 138 40 354 112 136 211 188 174 150 22 280 184 109 270 230 192 199 233 238 236 253 238 212 231 223 215 229 236 248 232 143 114 118 145 155 180 180 175 178 183
160 153 167 176 170 167 170 169 168 173 192 207 200 196 158 126 92 158 146 142 153 172 181 171 160 168 179 176 166 160 178 185 171 185 205 184 176 187 197 190 161 173 171 120 126 166 126 249 155 109 334 182 177 209 204 180 169 173 183 177 182 187 16 253 221 224 259 241 247 249 245 248 208 182 215 226 252 84 98 88 122 137 135 167 173 174 179 187
158 149 173 174 170 166 165 163 168 184 205 211 188 125 149 134 134 164 152 132 130 120 173 165 163 167 166 171 169 158 171 185 178 191 201 187 194 208 202 192 165 152 149 137 182 184 166 194 142 137 186 195 178 343 352 38 163 182 188 187 190 177 152 198 212 181 207 242 246 259 264 259 115 133 204 154 102 106 103 98 131 146 164 160 162 171 181 190
156 137 171 172 170 165 160 157 188 194 206 204 143 98 129 135 142 159 150 129 120 61 82 154 159 164 163 169 170 159 164 180 186 193 200 203 207 196 183 185 158 147 154 164 170 138 90 109 118 130 169 169 70 34 58 23 334 284 240 207 195 187 188 205 212 189 185 211 1 320 279 274 116 129 192 123 114 125 144 152 147 175 185 155 144 156 171 189
152 116 162 173 171 165 161 156 189 196 226 158 118 88 112 133 140 151 154 163 157 108 143 152 148 161 169 172 170 164 166 176 188 195 201 203 206 168 161 170 154 152 166 166 145 140 119 122 123 116 97 88 106 109 103 101 248 245 238 216 202 199 198 208 230 187 176 175 175 222 251 260 176 136 59 88 113 138 186 193 182 183 174 151 140 144 150 170
135 112 147 173 172 168 168 174 179 192 196 150 137 112 113 112 140 156 171 178 170 163 168 158 151 163 160 161 167 171 173 177 195 204 205 192 183 111 149 167 163 164 182 186 169 165 167 166 148 135 137 155 180 186 196 206 205 216 217 200 204 197 133 95 296 256 213 193 192 217 249 254 183 117 136 158 151 203 220 200 193 188 170 154 151 153 153 163
125 109 137 165 172 178 195 288 189 185 160 153 161 157 141 108 142 166 172 167 155 168 168 151 142 133 122 147 161 175 183 187 195 200 204 180 160 96 151 173 177 179 183 172 160 160 174 188 167 167 178 178 188 202 202 188 179 198 197 170 194 193 168 171 205 222 222 196 184 210 246 251 162 138 200 188 168 195 205 202 204 195 175 165 163 162 163 167
123 109 129 157 177 196 236 302 277 183 160 161 165 167 166 160 153 170 173 162 146 150 140 114 138 133 130 157 160 175 189 192 82 181 191 171 137 63 166 181 185 181 150 140 154 155 175 210 189 200 206 197 207 211 159 120 140 185 198 187 190 196 193 190 191 211 216 207 194 217 237 245 226 186 202 199 183 187 183 189 202 196 185 177 168 165 168 171
121 137 126 140 179 210 241 254 246 207 172 172 166 169 176 167 146 166 200 192 174 168 136 90 160 165 164 169 170 182 187 174 74 159 178 160 117 67 111 175 187 160 132 153 165 160 174 210 203 214 222 225 235 222 139 142 169 195 200 192 186 191 193 191 205 218 212 202 225 227 228 241 241 208 196 204 199 190 181 182 190 192 190 185 175 171 174 174
107 117 148 149 155 200 216 219 215 201 178 176 170 163 174 171 157 167 191 186 174 183 180 166 188 189 178 171 167 171 177 171 144 167 157 135 130 106 99 81 332 147 142 167 177 176 198 207 210 217 227 236 246 143 145 174 191 201 202 196 187 182 186 193 211 222 208 196 233 236 226 230 238 223 205 204 199 191 185 178 176 182 189 189 185 181 178 177
102 99 137 145 117 174 182 159 181 195 184 175 175 168 175 180 176 172 166 143 172 201 208 198 195 192 182 174 168 163 170 177 186 185 154 129 142 136 125 140 186 180 177 164 173 226 228 210 213 212 228 239 228 128 166 200 206 211 212 206 193 184 187 195 207 217 215 213 230 238 236 235 236 227 216 212 198 181 173 167 166 178 186 188 193 192 187 184
96 94 138 130 84 138 167 143 159 186 194 184 190 187 185 189 184 172 156 161 176 195 208 210 195 186 183 179 179 181 184 187 188 176 152 133 146 170 169 167 155 157 179 172 158 216 218 213 205 190 223 239 215 157 182 208 215 220 211 195 184 181 192 203 212 217 218 223 232 239 246 250 244 225 215 209 186 162 155 160 169 184 190 191 196 197 191 188
96 91 131 136 100 129 161 156 164 180 190 194 198 192 192 196 190 172 152 173 185 183 196 204 179 168 176 186 195 201 190 188 188 166 163 160 171 182 180 159 147 145 175 185 159 166 197 209 163 167 217 233 206 180 170 149 204 243 208 179 179 182 194 206 215 216 211 219 231 238 245 248 242 217 203 195 174 160 167 177 189 206 205 196 196 196 197 205
120 108 124 131 114 135 158 157 167 185 192 196 200 193 193 199 191 176 156 173 201 191 195 191 165 151 176 195 201 197 168 152 97 156 170 167 159 169 166 153 159 157 163 178 171 169 185 195 180 180 211 232 207 167 149 124 127 239 216 197 192 196 203 207 217 222 215 215 223 227 234 241 230 183 191 189 174 180 194 200 217 231 220 206 208 218 242 263
Height
1431 1435 1438 1440 1441 1443 1446 1449 1452 1455 1458 1462 1465 1469 1472 1475 1478 1482 1485 1487 1490 1493 1497 1499 1503 1506 1508 1510 1512 1515 1518 1521 1522 1522 1520 1519 1523 1524 1525 1526 1527 1528 1529 1529 1530 1531 1531 1531 1532 1533 1533 1533 1534 1533 1533 1533 1533 1534 1533 1533 1532 1530 1530 1527 1527 1529 1528 1530 1534 1537 1538 1538 1540 1543 1544 1545 1546 1547 1548 1549 1549 1550 1551 1551 1552 1552 1552 1553
1428 1432 1435 1437 1439 1440 1443 1447 1450 1453 1456 1459 1462 1466 1469 1472 1475 1479 1481 1485 1488 1491 1495 1498 1502 1504 1507 1509 1511 1515 1518 1519 1520 1518 1516 1519 1522 1522 1524 1525 1526 1528 1529 1530 1530 1530 1531 1532 1533 1533 1533 1533 1533 1533 1533 1532 1533 1532 1530 1531 1529 1525 1526 1525 1525 1528 1528 1530 1533 1536 1538 1538 1539 1541 1543 1544 1544 1546 1547 1548 1549 1550 1550 1551 1551 1552 1552 1553
1425 1429 1432 1434 1436 1438 1440 1444 1447 1450 1453 1457 1460 1463 1466 1469 1473 1476 1479 1482 1486 1489 1492 1496 1500 1503 1506 1509 1511 1515 1517 1519 1518 1514 1513 1518 1520 1520 1523 1524 1526 1528 1528 1529 1530 1530 1531 1532 1533 1533 1533 1532 1531 1532 1532 1532 1532 1530 1529 1531 1526 1522 1526 1527 1527 1530 1530 1530 1533 1536 1538 1539 1539 1541 1543 1543 1543 1544 1545 1545 1547 1548 1549 1550 1550 1551 1551 1552
1422 1425 1428 1431 1434 1436 1438 1441 1445 1448 1451 1454 1457 1460 1463 1466 1470 1473 1476 1480 1484 1487 1490 1495 1498 1502 1505 1508 1512 1514 1517 1519 1514 1509 1511 1516 1517 1519 1522 1524 1526 1528 1528 1529 1529 1530 1531 1531 1532 1533 1533 1531 1530 1532 1531 1531 1531 1529 1529 1528 1524 1522 1527 1529 1530 1531 1532 1532 1533 1536 1538 1539 1540 1541 1542 1542 1542 1543 1542 1543 1544 1546 1547 1548 1549 1550 1550 1551
1419 1422 1425 1429 1431 1433 1436 1439 1442 1445 1448 1451 1454 1458 1461 1464 1467 1470 1474 1478 1481 1485 1489 1493 1497 1500 1504 1507 1511 1513 1518 1519 1510 1506 1510 1513 1515 1518 1521 1523 1525 1527 1527 1528 1529 1530 1530 1531 1532 1533 1532 1530 1529 1531 1530 1529 1530 1529 1527 1527 1525 1524 1528 1530 1531 1532 1533 1534 1534 1536 1537 1538 1539 1541 1541 1541 1541 1540 1540 1541 1543 1544 1546 1546 1547 1549 1550 1551
1416 1419 1422 1426 1428 1431 1433 1436 1439 1443 1446 1449 1452 1455 1459 1462 1465 1468 1472 1475 1479 1483 1487 1491 1495 1499 1503 1506 1510 1512 1515 1513 1506 1505 1508 1510 1513 1516 1519 1521 1524 1525 1526 1526 1528 1529 1530 1530 1531 1532 1531 1529 1528 1528 1528 1529 1530 1529 1526 1527 1528 1527 1529 1531 1532 1533 1534 1535 1535 1536 1537 1537 1539 1539 1540 1540 1539 1539 1539 1541 1542 1543 1545 1545 1546 1548 1549 1550
1412 1416 1420 1423 1426 1429 1431 1434 1437 1440 1444 1447 1450 1453 1457 1460 1463 1466 1470 1474 1477 1482 1486 1490 1494 1497 1501 1504 1509 1511 1510 1507 1505 1506 1506 1508 1512 1514 1516 1520 1523 1524 1524 1525 1526 1528 1529 1530 1530 1530 1530 1528 1527 1526 1527 1528 1530 1528 1526 1527 1529 1529 1530 1532 1532 1533 1535 1536 1536 1536 1536 1537 1538 1538 1539 1539 1539 1539 1540 1541 1542 1543 1544 1545 1546 1547 1548 1549
1409 1413 1417 1421 1424 1427 1429 1432 1435 1439 1442 1445 1449 1452 1455 1458 1461 1464 1468 1472 1476 1481 1485 1488 1492 1495 1499 1502 1505 1508 1507 1504 1504 1505 1506 1507 1509 1511 1514 1518 1521 1522 1523 1524 1525 1528 1529 1528 1528 1529 1529 1528 1526 1526 1527 1528 1529 1528 1527 1527 1529 1531 1532 1532 1533 1534 1535 1536 1537 1537 1537 1537 1537 1538 1538 1538 1538 1539 1540 1541 1542 1542 1543 1544 1545 1546 1548 1549
1407 1410 1414 1418 1421 1424 1427 1430 1433 1436 1440 1444 1447 1450 1453 1456 1459 1463 1467 1471 1475 1479 1483 1487 1490 1494 1498 1500 1504 1505 1501 1500 1503 1504 1505 1506 1508 1510 1512 1516 1519 1521 1522 1523 1524 1527 1528 1527 1526 1527 1527 1527 1526 1526 1527 1528 1528 1527 1527 1529 1530 1532 1533 1533 1534 1535 1536 1537 1537 1537 1537 1537 1538 1539 1537 1536 1538 1538 1539 1540 1541 1542 1543 1543 1545 1546 1547 1548
1404 1407 1411 1415 1419 1423 1426 1429 1431 1434 1438 1442 1446 1449 1452 1454 1458 1462 1466 1470 1475 1478 1482 1486 1489 1493 1496 1499 1503 1501 1497 1498 1502 1503 1504 1505 1507 1509 1511 1514 1517 1519 1521 1522 1523 1525 1526 1526 1525 1526 1527 1526 1526 1526 1527 1527 1527 1527 1528 1530 1531 1533 1533 1534 1534 1535 1536 1537 1537 1537 1537 1538 1539 1540 1536 1533 1535 1537 1538 1539 1540 1541 1542 1543 1544 1545 1546 1547
1402 1405 1409 1413 1418 1422 1425 1428 1430 1433 1437 1441 1444 1448 1450 1453 1457 1461 1466 1470 1474 1478 1481 1484 1488 1491 1494 1497 1499 1496 1495 1498 1500 1502 1504 1505 1506 1508 1510 1512 1515 1518 1519 1520 1522 1523 1524 1525 1525 1525 1526 1525 1525 1527 1527 1527 1528 1528 1529 1531 1533 1533 1534 1534 1534 1536 1536 1536 1537 1536 1537 1538 1540 1539 1534 1532 1534 1535 1537 1538 1538 1540 1541 1542 1543 1544 1545 1546
1399 1402 1406 1411 1416 1420 1423 1426 1429 1432 1436 1440 1443 1446 1448 1452 1456 1461 1466 1470 1474 1477 1480 1483 1487 1490 1494 1496 1496 1494 1495 1497 1498 1501 1503 1504 1506 1507 1509 1512 1514 1517 1518 1520 1521 1522 1523 1524 1525 1525 1524 1523 1525 1527 1527 1528 1529 1530 1529 1530 1533 1533 1533 1534 1534 1535 1536 1536 1537 1537 1538 1538 1537 1535 1531 1532 1533 1533 1536 1537 1537 1538 1540 1541 1542 1543 1543 1544
1396 1400 1404 1409 1415 1419 1422 1425 1428 1432 1435 1439 1442 1444 1447 1451 1456 1461 1466 1470 1473 1476 1480 1483 1487 1490 1494 1495 1494 1495 1496 1496 1498 1500 1502 1504 1505 1506 1509 1511 1513 1516 1517 1519 1520 1521 1522 1523 1524 1525 1524 1523 1524 1526 1527 1528 1530 1530 1529 1529 1533 1535 1533 1533 1535 1535 1535 1536 1536 1538 1539 1532 1526 1528 1529 1530 1532 1533 1534 1535 1536 1537 1538 1540 1540 1541 1541 1543
1394 1398 1402 1408 1413 1417 1421 1424 1427 1431 1435 1438 1440 1443 1447 1452 1457 1462 1466 1470 1473 1476 1479 1483 1487 1490 1493 1493 1492 1494 1495 1496 1497 1499 1501 1503 1504 1506 1508 1510 1513 1515 1516 1518 1519 1520 1521 1523 1524 1524 1524 1523 1524 1526 1527 1529 1530 1529 1530 1530 1530 1533 1533 1532 1534 1535 1535 1536 1536 1538 1540 1528 1520 1524 1528 1529 1531 1532 1533 1534 1535 1536 1536 1537 1538 1539 1539 1540
1392 1396 1400 1406 1412 1416 1420 1423 1426 1430 1433 1436 1439 1443 1448 1453 1458 1462 1466 1469 1472 1476 1479 1483 1487 1490 1492 1491 1492 1494 1495 1496 1497 1498 1500 1502 1504 1505 1507 1509 1512 1514 1516 1517 1518 1519 1521 1522 1523 1523 1524 1524 1524 1525 1526 1529 1529 1527 1532 1533 1528 1529 1533 1533 1534 1534 1534 1536 1536 1538 1538 1528 1521 1525 1527 1528 1530 1531 1532 1533 1533 1534 1535 1536 1536 1537 1538 1538
1391 1394 1399 1404 1410 1415 1418 1422 1426 1429 1432 1435 1439 1444 1449 1454 1458 1462 1465 1468 1472 1476 1480 1484 1486 1489 1490 1489 1490 1492 1493 1495 1496 1497 1499 1500 1503 1504 1506 1509 1511 1513 1515 1516 1517 1519 1520 1521 1522 1522 1523 1524 1524 1522 1524 1529 1530 1528 1529 1530 1528 1528 1530 1532 1534 1534 1534 1534 1535 1536 1534 1526 1523 1526 1527 1528 1529 1530 1531 1531 1532 1533 1534 1534 1535 1535 1536 1537
1389 1393 1397 1403 1409 1413 1417 1422 1425 1428 1432 1436 1441 1445 1450 1454 1458 1461 1465 1469 1473 1477 1481 1484 1487 1490 1488 1486 1488 1488 1490 1493 1495 1496 1497 1499 1501 1503 1506 1508 1510 1513 1514 1516 1517 1518 1520 1521 1522 1522 1522 1523 1520 1519 1526 1532 1531 1529 1527 1526 1527 1527 1527 1530 1533 1534 1534 1534 1533 1533 1533 1527 1522 1524 1526 1527 1528 1529 1529 1529 1530 1531 1532 1533 1533 1533 1534 1534
1387 1392 1396 1402 1408 1412 1417 1421 1425 1428 1433 1437 1442 1446 1450 1454 1458 1461 1465 1469 1474 1480 1484 1485 1487 1490 1485 1483 1485 1486 1487 1491 1494 1495 1496 1498 1500 1503 1505 1507 1509 1512 1514 1515 1517 1518 1519 1521 1521 1521 1522 1521 1518 1517 1525 1528 1524 1525 1527 1526 1529 1529 1527 1527 1529 1532 1533 1533 1533 1532 1532 1527 1522 1522 1524 1525 1527 1528 1528 1528 1529 1529 1530 1531 1531 1532 1532 1532
1386 1391 1395 1402 1407 1411 1416 1421 1424 1428 1432 1437 1441 1445 1450 1455 1460 1463 1465 1467 1471 1476 1478 1476 1478 1479 1476 1476 1481 1484 1486 1490 1493 1494 1496 1496 1499 1502 1505 1507 1509 1511 1513 1514 1515 1517 1517 1520 1521 1521 1521 1519 1516 1514 1516 1516 1514 1517 1521 1522 1526 1529 1528 1526 1528 1532 1532 1533 1533 1530 1528 1526 1523 1521 1522 1523 1524 1526 1526 1526 1527 1528 1528 1529 1529 1529 1530 1530
1385 1390 1394 1400 1406 1411 1415 1419 1423 1427 1430 1432 1435 1440 1446 1450 1456 1463 1465 1465 1465 1466 1467 1468 1471 1473 1471 1473 1478 1482 1486 1490 1493 1493 1495 1496 1498 1501 1505 1507 1509 1510 1511 1510 1513 1515 1516 1519 1520 1518 1516 1515 1514 1514 1513 1513 1513 1514 1516 1519 1521 1523 1524 1524 1529 1533 1532 1532 1530 1526 1526 1524 1522 1520 1519 1521 1522 1523 1524 1524 1525 1525 1526 1526 1527 1527 1527 1528
1384 1389 1393 1399 1405 1409 1414 1418 1422 1426 1427 1429 1430 1432 1434 1435 1439 1445 1453 1462 1465 1464 1465 1467 1471 1473 1473 1473 1475 1479 1484 1488 1492 1492 1494 1496 1497 1500 1504 1506 1507 1509 1509 1509 1512 1515 1516 1518 1515 1513 1512 1512 1513 1514 1515 1515 1515 1515 1516 1519 1521 1521 1523 1526 1530 1532 1533 1533 1527 1524 1526 1523 1521 1519 1518 1519 1519 1518 1519 1520 1521 1521 1523 1523 1524 1525 1525 1525
1383 1387 1391 1398 1404 1408 1413 1417 1421 1424 1427 1428 1428 1429 1431 1431 1431 1433 1442 1456 1464 1466 1466 1468 1471 1472 1473 1474 1476 1478 1482 1485 1489 1491 1492 1494 1496 1498 1502 1504 1505 1507 1508 1510 1512 1517 1519 1515 1511 1510 1511 1511 1514 1515 1516 1517 1517 1518 1518 1520 1522 1521 1523 1529 1531 1531 1533 1534 1527 1525 1528 1523 1518 1517 1515 1515 1515 1514 1515 1516 1517 1518 1519 1520 1520 1521 1522 1523
1381 1385 1390 1397 1402 1407 1412 1416 1420 1423 1425 1426 1426 1428 1431 1433 1435 1439 1445 1454 1463 1467 1467 1469 1471 1472 1473 1475 1477 1478 1480 1482 1485 1489 1490 1492 1494 1496 1499 1502 1503 1505 1509 1509 1510 1516 1518 1513 1510 1512 1512 1513 1516 1517 1518 1519 1519 1519 1518 1520 1523 1522 1523 1527 1530 1532 1533 1533 1531 1530 1529 1522 1516 1514 1511 1511 1511 1510 1512 1513 1513 1515 1515 1516 1517 1518 1519 1520
1380 1384 1389 1395 1401 1407 1411 1417 1420 1423 1423 1424 1427 1428 1431 1434 1437 1443 1448 1454 1462 1466 1467 1469 1470 1471 1472 1474 1476 1477 1479 1481 1483 1486 1488 1490 1492 1495 1497 1499 1501 1505 1507 1506 1507 1511 1513 1514 1513 1514 1514 1514 1518 1519 1518 1520 1520 1520 1520 1520 1522 1523 1524 1525 1529 1532 1533 1534 1534 1532 1531 1520 1511 1511 1508 1505 1508 1508 1509 1510 1510 1511 1511 1513 1514 1515 1516 1516
1378 1383 1388 1394 1401 1405 1411 1417 1418 1421 1423 1424 1426 1428 1432 1435 1439 1444 1447 1455 1464 1466 1468 1469 1469 1470 1471 1472 1474 1476 1478 1480 1482 1484 1486 1488 1490 1492 1495 1497 1500 1503 1504 1505 1507 1508 1511 1516 1515 1515 1515 1515 1518 1519 1518 1519 1519 1520 1521 1519 1519 1520 1523 1527 1530 1532 1532 1534 1533 1533 1535 1520 1503 1504 1505 1502 1505 1506 1506 1507 1507 1507 1508 1509 1510 1510 1512 1513
1377 1382 1387 1393 1399 1404 1410 1414 1416 1420 1422 1423 1425 1428 1432 1435 1440 1443 1445 1456 1465 1465 1468 1468 1468 1469 1469 1471 1473 1476 1479 1479 1480 1482 1484 1487 1488 1489 1493 1496 1499 1500 1501 1504 1508 1509 1513 1516 1516 1515 1516 1517 1519 1519 1518 1518 1518 1520 1521 1520 1520 1520 1523 1528 1530 1531 1531 1532 1533 1534 1536 1525 1508 1503 1503 1502 1505 1505 1504 1504 1503 1504 1505 1505 1506 1506 1508 1509
1375 1380 1385 1391 1396 1400 1405 1408 1413 1417 1419 1422 1423 1427 1432 1434 1440 1441 1446 1465 1467 1460 1465 1467 1466 1467 1468 1471 1472 1474 1476 1475 1479 1483 1483 1485 1487 1487 1490 1494 1498 1500 1501 1505 1510 1512 1514 1517 1517 1516 1517 1518 1519 1518 1517 1517 1519 1522 1523 1522 1522 1522 1525 1528 1528 1530 1529 1530 1534 1532 1531 1532 1522 1507 1502 1503 1506 1504 1502 1502 1500 1500 1502 1502 1503 1504 1505 1506
1374 1379 1383 1389 1394 1399 1402 1404 1408 1411 1415 1420 1422 1428 1432 1435 1441 1440 1449 1471 1466 1453 1459 1463 1464 1466 1467 1470 1471 1472 1471 1470 1477 1483 1482 1484 1486 1487 1488 1491 1494 1499 1502 1505 1510 1511 1513 1516 1516 1516 1517 1518 1518 1517 1516 1517 1520 1524 1526 1524 1523 1524 1525 1525 1527 1529 1529 1532 1536 1530 1530 1536 1525 1506 1502 1504 1504 1503 1501 1498 1497 1497 1500 1501 1501 1502 1503 1503
1373 1378 1382 1389 1395 1401 1404 1405 1406 1410 1416 1420 1424 1429 1432 1436 1442 1441 1451 1464 1455 1448 1454 1458 1462 1465 1466 1469 1470 1472 1471 1470 1474 1478 1482 1485 1485 1487 1488 1489 1492 1498 1503 1503 1506 1512 1514 1515 1514 1514 1515 1516 1519 1521 1520 1518 1520 1525 1527 1525 1525 1527 1526 1526 1528 1528 1532 1538 1535 1529 1529 1534 1523 1503 1501 1506 1504 1502 1498 1495 1496 1497 1499 1500 1500 1501 1502 1502
1372 1376 1381 1387 1393 1398 1402 1405 1409 1413 1418 1422 1425 1430 1433 1438 1441 1448 1461 1457 1445 1449 1454 1455 1459 1461 1464 1467 1469 1471 1471 1472 1473 1477 1484 1485 1485 1487 1487 1490 1493 1497 1503 1505 1509 1514 1515 1515 1515 1515 1516 1517 1520 1523 1523 1522 1521 1524 1525 1525 1527 1528 1527 1529 1528 1528 1537 1539 1535 1533 1531 1533 1529 1506 1496 1502 1501 1497 1496 1494 1495 1497 1498 1500 1500 1501 1501 1501
1372 1376 1381 1385 1389 1394 1398 1403 1408 1412 1417 1421 1425 1430 1434 1438 1440 1450 1460 1446 1438 1451 1455 1454 1456 1456 1459 1462 1465 1469 1469 1472 1474 1475 1481 1483 1485 1487 1487 1491 1494 1499 1506 1507 1511 1516 1515 1516 1516 1517 1518 1518 1519 1521 1524 1525 1523 1524 1523 1523 1529 1533 1532 1533 1533 1537 1543 1539 1537 1541 1538 1537 1534 1510 1492 1495 1496 1494 1496 1495 1496 1497 1498 1499 1500 1500 1500 1500
1372 1376 1381 1386 1390 1395 1398 1402 1406 1411 1416 1419 1424 1427 1431 1441 1446 1444 1444 1436 1437 1448 1447 1447 1450 1451 1455 1458 1462 1467 1468 1472 1474 1473 1476 1479 1482 1483 1482 1485 1489 1499 1508 1507 1511 1515 1514 1515 1516 1518 1519 1518 1517 1520 1527 1527 1525 1523 1521 1524 1532 1537 1541 1542 1539 1540 1540 1537 1541 1544 1543 1541 1527 1504 1493 1494 1493 1493 1495 1494 1496 1496 1497 1498 1499 1500 1500 1499
1373 1377 1383 1388 1392 1396 1400 1405 1408 1412 1416 1419 1424 1426 1428 1442 1444 1432 1431 1433 1433 1436 1437 1441 1445 1447 1453 1457 1461 1465 1466 1470 1472 1472 1474 1476 1479 1481 1480 1480 1480 1488 1495 1500 1508 1513 1515 1518 1517 1517 1518 1516 1513 1516 1524 1527 1524 1522 1519 1523 1529 1534 1545 1547 1540 1538 1536 1539 1544 1543 1542 1538 1519 1499 1493 1491 1491 1493 1493 1494 1496 1496 1496 1497 1497 1499 1499 1498
1374 1378 1383 1388 1392 1397 1402 1406 1410 1412 1415 1419 1423 1426 1432 1439 1433 1422 1426 1430 1429 1431 1433 1438 1444 1448 1452 1454 1457 1460 1465 1471 1470 1469 1472 1475 1478 1479 1479 1480 1478 1479 1484 1493 1501 1503 1510 1514 1512 1513 1513 1512 1512 1513 1515 1516 1519 1520 1516 1519 1523 1523 1532 1536 1532 1532 1534 1540 1547 1547 1540 1526 1510 1498 1491 1489 1491 1492 1493 1494 1494 1495 1495 1496 1496 1497 1498 1498
1375 1380 1384 1388 1393 1397 1400 1405 1409 1411 1415 1418 1421 1427 1432 1430 1422 1417 1421 1424 1428 1432 1433 1437 1443 1448 1452 1455 1457 1457 1462 1469 1470 1469 1472 1472 1472 1472 1472 1474 1475 1476 1480 1490 1495 1495 1500 1505 1508 1512 1510 1509 1513 1513 1512 1513 1519 1522 1518 1520 1523 1516 1518 1531 1538 1536 1535 1538 1541 1542 1532 1509 1496 1493 1487 1488 1490 1490 1492 1492 1492 1494 1494 1494 1496 1496 1497 1497
1376 1381 1385 1388 1392 1395 1399 1404 1407 1411 1413 1415 1421 1425 1421 1415 1412 1411 1413 1417 1424 1428 1433 1441 1444 1446 1453 1458 1458 1458 1459 1464 1467 1470 1471 1469 1468 1467 1466 1467 1470 1472 1473 1480 1489 1491 1496 1504 1512 1514 1512 1512 1514 1514 1513 1514 1518 1521 1522 1523 1521 1517 1518 1532 1544 1543 1540 1538 1526 1523 1521 1504 1496 1493 1484 1485 1488 1488 1491 1491 1491 1493 1493 1494 1495 1495 1496 1496
1374 1379 1383 1386 1390 1394 1398 1402 1406 1411 1413 1415 1418 1416 1408 1406 1408 1408 1409 1415 1422 1424 1430 1439 1442 1442 1448 1454 1456 1457 1458 1462 1466 1468 1468 1468 1466 1462 1463 1464 1465 1468 1468 1472 1481 1484 1489 1506 1516 1514 1513 1515 1514 1514 1515 1514 1515 1519 1522 1519 1516 1521 1521 1522 1532 1537 1539 1536 1520 1515 1516 1507 1504 1500 1487 1484 1488 1487 1489 1490 1491 1492 1492 1493 1493 1494 1496 1495
1371 1377 1382 1385 1389 1393 1397 1402 1406 1410 1413 1415 1415 1409 1403 1406 1409 1408 1409 1413 1419 1423 1426 1432 1437 1437 1441 1447 1451 1453 1455 1459 1464 1465 1464 1466 1464 1456 1458 1463 1463 1467 1468 1470 1477 1479 1482 1502 1518 1517 1516 1517 1515 1515 1516 1516 1515 1516 1516 1514 1515 1523 1524 1521 1528 1533 1533 1533 1522 1514 1514 1510 1506 1499 1488 1486 1487 1486 1487 1489 1490 1490 1491 1492 1492 1493 1495 1495
1370 1377 1383 1385 1388 1393 1396 1402 1406 1410 1414 1413 1410 1405 1402 1406 1409 1408 1409 1412 1417 1421 1422 1425 1431 1435 1437 1440 1444 1450 1454 1455 1460 1462 1460 1463 1462 1455 1455 1460 1462 1467 1469 1470 1475 1477 1480 1494 1513 1519 1516 1516 1516 1515 1514 1515 1517 1517 1516 1515 1516 1518 1519 1518 1520 1519 1522 1527 1521 1515 1514 1507 1496 1489 1486 1485 1485 1484 1487 1488 1489 1490 1490 1491 1492 1493 1493 1494
1368 1375 1381 1383 1387 1392 1397 1403 1407 1411 1410 1404 1400 1400 1400 1405 1410 1410 1409 1411 1414 1418 1419 1420 1426 1433 1435 1436 1439 1446 1451 1452 1455 1459 1457 1458 1460 1458 1455 1457 1462 1466 1469 1472 1474 1478 1481 1486 1503 1518 1519 1516 1515 1511 1508 1508 1511 1515 1516 1517 1518 1518 1519 1519 1514 1512 1517 1521 1517 1516 1514 1498 1484 1482 1483 1483 1484 1486 1487 1488 1489 1490 1490 1491 1492 1492 1493 1493
1366 1372 1378 1382 1386 1390 1396 1403 1406 1405 1402 1397 1397 1400 1401 1404 1409 1410 1410 1411 1413 1415 1416 1417 1422 1428 1431 1434 1437 1442 1448 1451 1452 1455 1455 1454 1455 1457 1456 1455 1459 1463 1469 1475 1475 1477 1481 1484 1498 1516 1518 1513 1510 1509 1509 1509 1508 1509 1509 1509 1511 1513 1517 1521 1520 1517 1517 1517 1512 1514 1513 1496 1481 1482 1483 1482 1486 1487 1488 1488 1489 1490 1490 1490 1491 1492 1492 1493
1365 1370 1374 1379 1384 1388 1393 1398 1399 1396 1395 1395 1396 1399 1402 1403 1406 1409 1411 1412 1414 1416 1417 1418 1421 1425 1428 1431 1433 1438 1444 1449 1450 1451 1451 1451 1449 1452 1455 1455 1458 1462 1466 1473 1475 1475 1478 1484 1498 1511 1511 1510 1511 1512 1514 1513 1510 1509 1508 1506 1505 1507 1510 1514 1517 1515 1516 1519 1516 1516 1516 1498 1482 1483 1484 1483 1486 1487 1488 1489 1489 1490 1490 1490 1491 1491 1492 1493
1365 1369 1374 1378 1382 1385 1389 1394 1397 1396 1394 1394 1395 1399 1402 1403 1404 1408 1411 1412 1414 1416 1417 1419 1421 1424 1427 1428 1431 1435 1440 1444 1447 1446 1446 1448 1449 1450 1454 1456 1458 1461 1465 1470 1473 1476 1478 1484 1496 1507 1509 1509 1511 1511 1512 1513 1512 1510 1508 1505 1503 1502 1501 1504 1506 1505 1510 1517 1516 1517 1519 1500 1482 1484 1486 1485 1487 1487 1487 1488 1488 1490 1490 1489 1491 1491 1491 1492
1364 1368 1374 1380 1385 1386 1386 1388 1390 1391 1391 1393 1396 1401 1403 1403 1404 1407 1409 1410 1413 1414 1416 1418 1420 1423 1426 1427 1430 1433 1436 1442 1446 1445 1444 1447 1450 1452 1454 1455 1457 1459 1461 1464 1466 1472 1477 1480 1489 1503 1511 1513 1514 1514 1512 1512 1510 1504 1499 1499 1500 1499 1501 1506 1506 1504 1507 1510 1508 1513 1513 1494 1481 1484 1486 1487 1488 1486 1487 1488 1488 1489 1489 1489 1490 1491 1491 1492
1361 1368 1375 1380 1385 1387 1385 1383 1381 1384 1388 1392 1396 1400 1402 1404 1405 1406 1407 1409 1411 1412 1414 1417 1420 1422 1425 1428 1431 1433 1433 1437 1442 1444 1446 1447 1451 1455 1455 1456 1457 1457 1459 1461 1462 1467 1473 1475 1479 1490 1500 1504 1506 1502 1494 1493 1498 1499 1497 1498 1499 1499 1501 1503 1504 1508 1510 1507 1505 1508 1502 1487 1482 1485 1485 1486 1488 1487 1487 1488 1488 1488 1488 1489 1490 1490 1491 1492
1358 1367 1375 1380 1386 1387 1385 1384 1383 1383 1386 1390 1395 1397 1399 1403 1406 1407 1408 1410 1412 1412 1413 1417 1419 1422 1426 1429 1432 1434 1433 1435 1439 1442 1444 1447 1452 1456 1456 1456 1458 1459 1460 1462 1463 1466 1471 1472 1471 1475 1478 1478 1478 1474 1470 1475 1487 1494 1493 1494 1495 1495 1496 1498 1503 1506 1504 1504 1506 1502 1493 1486 1485 1485 1484 1484 1485 1485 1485 1486 1487 1487 1487 1488 1489 1490 1491 1491
1358 1364 1369 1375 1384 1387 1387 1387 1385 1383 1382 1385 1389 1393 1395 1400 1404 1408 1410 1410 1412 1413 1415 1417 1418 1420 1424 1427 1430 1433 1433 1435 1440 1441 1442 1447 1452 1456 1457 1457 1459 1460 1461 1463 1463 1466 1470 1472 1469 1469 1468 1465 1464 1466 1467 1472 1481 1484 1485 1488 1490 1492 1495 1499 1501 1497 1493 1502 1506 1494 1488 1489 1484 1481 1483 1482 1481 1482 1483 1484 1486 1486 1487 1488 1488 1489 1490 1491
1360 1364 1367 1369 1374 1379 1381 1383 1383 1382 1382 1383 1386 1389 1393 1397 1401 1405 1408 1410 1411 1412 1414 1417 1417 1416 1417 1420 1425 1431 1434 1438 1442 1441 1442 1447 1452 1456 1459 1460 1461 1461 1462 1463 1464 1464 1468 1470 1467 1467 1469 1466 1465 1468 1469 1471 1475 1477 1479 1483 1486 1489 1494 1497 1497 1490 1488 1497 1496 1483 1482 1486 1479 1476 1479 1478 1478 1480 1481 1482 1484 1484 1486 1487 1488 1489 1489 1490
1360 1364 1368 1370 1371 1373 1376 1377 1380 1384 1384 1385 1387 1389 1391 1394 1397 1399 1403 1408 1412 1411 1410 1413 1414 1413 1414 1416 1420 1426 1431 1434 1438 1440 1442 1446 1450 1454 1458 1460 1462 1462 1463 1464 1465 1465 1467 1467 1465 1467 1471 1469 1467 1471 1472 1472 1474 1476 1476 1478 1481 1485 1488 1489 1489 1487 1485 1487 1482 1474 1476 1477 1472 1472 1475 1475 1476 1478 1479 1481 1482 1483 1485 1486 1487 1488 1488 1490
1362 1364 1367 1370 1373 1375 1377 1378 1381 1385 1387 1387 1389 1389 1389 1392 1395 1397 1399 1404 1408 1409 1408 1409 1409 1410 1413 1415 1416 1420 1422 1422 1426 1432 1438 1444 1448 1450 1452 1453 1456 1461 1464 1464 1465 1467 1468 1466 1464 1466 1471 1471 1469 1472 1474 1474 1475 1476 1477 1478 1481 1485 1488 1488 1486 1483 1484 1483 1476 1473 1477 1474 1467 1467 1471 1473 1475 1475 1477 1480 1481 1482 1484 1485 1486 1487 1488 1489
1364 1364 1365 1368 1373 1376 1377 1378 1380 1384 1387 1388 1387 1387 1388 1389 1391 1395 1398 1400 1403 1405 1406 1407 1408 1411 1414 1415 1415 1416 1417 1417 1420 1424 1429 1434 1438 1441 1444 1445 1449 1458 1463 1463 1464 1466 1468 1468 1466 1468 1473 1471 1467 1470 1475 1477 1478 1480 1481 1481 1482 1484 1484 1483 1479 1475 1477 1479 1477 1479 1481 1471 1462 1463 1468 1470 1472 1474 1476 1477 1479 1480 1482 1484 1486 1486 1487 1487
1365 1366 1366 1367 1373 1377 1377 1377 1380 1383 1384 1383 1383 1384 1386 1387 1389 1393 1398 1401 1402 1403 1405 1407 1408 1411 1415 1416 1415 1414 1416 1419 1421 1423 1427 1430 1431 1435 1439 1440 1443 1449 1456 1460 1462 1463 1464 1465 1466 1469 1471 1469 1468 1470 1474 1479 1485 1484 1478 1474 1474 1474 1474 1474 1472 1470 1471 1473 1475 1477 1471 1461 1457 1462 1466 1467 1469 1471 1473 1474 1477 1478 1479 1482 1482 1482 1483 1483